EW4638 Weather Reports


time (UTC)temp
F
wind
direction
speed
knots
gust
knots
rain 1hr
in
rain 24hr
in
rain mn
in
humidity
%
barometer
mb
20260906051553 74 310 0.0 0.0 0.00 0.00 0.00 81 1010.6
20260906050046 74 310 0.0 3.5 0.00 0.00 0.00 81 1010.6
20260906044543 74 310 0.0 0.0 0.00 0.00 0.00 80 1010.5
20260906043040 75 310 0.0 0.0 0.00 0.00 0.00 79 1010.4
20260906041537 75 310 0.0 0.0 0.00 0.00 0.00 78 1010.4
20260906040038 75 310 0.0 0.0 0.00 0.00 0.00 79 1010.3
20260906034542 75 310 0.0 0.0 0.00 0.00 0.00 79 1010.4
20260906033035 75 310 0.0 0.0 0.00 0.00 0.00 78 1010.5
20260906031531 76 310 0.0 0.0 0.00 0.00 0.00 77 1010.5
20260906030032 76 310 0.0 0.0 0.00 0.00 0.00 77 1010.3
20260906024532 76 310 0.0 0.0 0.00 0.00 0.00 77 1010.5
20260906023131 76 310 0.0 0.0 0.00 0.00 0.00 76 1010.3
20260906021530 77 310 0.0 0.0 0.00 0.00 0.00 75 1009.9
20260906020029 77 310 0.0 0.0 0.00 0.00 0.00 73 1009.8
20260906014559 78 310 0.0 0.0 0.00 0.00 0.00 73 1009.6
20260906013028 78 310 0.0 0.0 0.00 0.00 0.00 72 1009.6
20260906011536 78 310 0.0 0.0 0.00 0.00 0.00 72 1009.6
20260906010027 79 310 0.0 0.0 0.00 0.00 0.00 72 1009.4
20260906004536 79 310 0.0 0.0 0.00 0.00 0.00 71 1009.4
20260906003042 80 310 0.0 0.0 0.00 0.00 0.00 69 1009.3
20260906001526 81 310 0.0 0.9 0.00 0.00 0.00 70 1009.5
20260906000024 82 310 0.0 0.0 0.00 0.00 0.00 68 1009.7
20260905234524 83 310 0.0 0.0 0.00 0.00 0.00 68 1009.9
20260905233123 84 310 0.0 0.9 0.00 0.00 0.00 67 1009.8
20260905231523 85 310 0.0 0.0 0.00 0.00 0.00 66 1009.7
20260905230022 87 5 0.0 0.0 0.00 0.00 0.00 65 1009.6
20260905224528 89 5 0.0 0.0 0.00 0.00 0.00 62 1009.9
20260905223022 91 5 0.0 0.9 0.00 0.00 0.00 58 1009.8
20260905221521 93 5 0.0 0.0 0.00 0.00 0.00 53 1009.6
20260905220023 94 5 0.0 0.0 0.00 0.00 0.00 51 1009.8
20260905214521 94 5 0.0 0.0 0.00 0.00 0.00 48 1009.3
20260905213035 94 355 0.0 3.5 0.00 0.00 0.00 50 1009.4
20260905211518 94 348 0.0 0.9 0.00 0.00 0.00 49 1009.4
20260905210018 94 62 0.0 0.0 0.00 0.00 0.00 50 1009.4
20260905204519 95 62 0.0 1.7 0.00 0.00 0.00 52 1009.4
20260905203017 96 62 0.0 2.6 0.00 0.00 0.00 48 1009.7
20260905201511 96 63 0.0 0.0 0.00 0.00 0.00 50 1009.8
20260905200008 96 27 0.0 0.9 0.00 0.00 0.00 49 1010.1
20260905193001 94 314 0.0 0.0 0.00 0.00 0.00 49 1010.5
20260905191600 93 37 0.0 0.0 0.00 0.00 0.00 50 1010.5
20260905190059 92 321 0.0 4.3 0.00 0.00 0.00 52 1010.9
20260905184551 92 186 0.0 0.9 0.00 0.00 0.00 54 1011.3
20260905183055 91 229 0.0 0.0 0.00 0.00 0.00 54 1011.4
20260905181548 91 187 0.0 0.0 0.00 0.00 0.00 56 1011.7
20260905180046 90 183 0.0 5.2 0.00 0.00 0.00 55 1011.8
20260905174544 90 205 0.0 0.0 0.00 0.00 0.00 58 1012.1
20260905173042 89 232 0.0 0.0 0.00 0.00 0.00 60 1012.1
20260905171539 89 234 0.0 0.0 0.00 0.00 0.00 59 1012.4
20260905170046 88 225 0.0 0.0 0.00 0.00 0.00 60 1012.5
20260905164534 88 193 0.0 0.0 0.00 0.00 0.00 62 1012.5
20260905163031 87 281 0.0 0.0 0.00 0.00 0.00 64 1013.0
20260905161527 86 251 0.0 0.0 0.00 0.00 0.00 63 1012.9
20260905160123 85 248 0.0 1.7 0.00 0.00 0.00 65 1012.7
20260905154515 84 178 0.0 2.6 0.00 0.00 0.00 69 1012.8
20260905153010 83 11 0.0 3.5 0.00 0.00 0.00 70 1012.9
20260905151507 81 201 0.0 0.0 0.00 0.00 0.00 74 1013.2
20260905150005 79 9 0.0 0.9 0.00 0.00 0.00 77 1013.3
20260905144602 78 15 0.0 4.3 0.00 0.00 0.00 78 1013.6
20260905143058 77 91 0.9 3.5 0.00 0.00 0.00 82 1013.4
20260905141555 76 262 0.0 4.3 0.00 0.00 0.00 85 1013.5
20260905140049 75 273 0.0 0.0 0.00 0.00 0.00 85 1013.2
20260905134552 75 173 0.0 0.0 0.00 0.00 0.00 85 1012.9
20260905133046 74 173 0.0 1.7 0.00 0.00 0.00 85 1012.8
20260905131550 74 246 0.0 0.0 0.00 0.00 0.00 86 1012.8
20260905130037 73 246 0.0 1.7 0.00 0.00 0.00 85 1013.0
20260905124547 73 246 0.0 0.0 0.00 0.00 0.00 86 1012.9
20260905123020 73 246 0.0 0.0 0.00 0.00 0.00 86 1012.6
20260905121519 72 246 0.0 0.0 0.00 0.00 0.00 86 1012.5
20260905120016 72 350 0.0 0.0 0.00 0.00 0.00 86 1012.5
20260905114524 72 350 0.0 0.0 0.00 0.00 0.00 85 1012.2
20260905113023 72 350 0.0 0.0 0.00 0.00 0.00 85 1012.1
20260905111512 72 350 0.0 0.0 0.00 0.00 0.00 85 1012.1
20260905110015 73 350 0.0 0.0 0.00 0.00 0.00 85 1012.0
20260905104519 73 350 0.0 0.0 0.00 0.00 0.00 85 1011.9
20260905103021 73 350 0.0 0.0 0.00 0.00 0.00 85 1011.9
20260905101509 73 350 0.0 0.0 0.00 0.00 0.00 85 1011.8
20260905100019 73 350 0.0 0.0 0.00 0.00 0.00 85 1011.7
20260905094511 73 350 0.0 0.0 0.00 0.00 0.00 85 1011.5
20260905093006 73 350 0.0 0.0 0.00 0.00 0.00 85 1011.4
20260905091505 74 350 0.0 0.0 0.00 0.00 0.00 84 1011.5
20260905090007 74 350 0.0 0.0 0.00 0.00 0.00 84 1011.3
20260905084504 74 350 0.0 0.0 0.00 0.00 0.00 84 1011.2
20260905083001 74 350 0.0 0.0 0.00 0.00 0.00 84 1011.1
20260905081606 74 350 0.0 0.0 0.00 0.00 0.00 84 1011.2
20260905074558 75 350 0.0 0.0 0.00 0.00 0.00 83 1011.4
20260905073055 75 350 0.0 0.0 0.00 0.00 0.00 83 1011.7
20260905071556 75 350 0.0 0.0 0.00 0.00 0.00 83 1012.0
20260905070052 76 350 0.0 0.0 0.00 0.00 0.00 83 1012.0
20260905064550 76 350 0.0 0.0 0.00 0.00 0.00 83 1012.1
20260905063058 76 350 0.0 0.0 0.00 0.00 0.00 82 1012.4
20260905061602 76 350 0.0 0.0 0.00 0.00 0.00 82 1012.4
20260905060143 77 350 0.0 0.0 0.00 0.00 0.00 81 1012.5
20260905054541 77 350 0.0 0.0 0.00 0.00 0.00 81 1012.5
20260905053040 78 350 0.0 0.0 0.00 0.00 0.00 80 1012.6